Regional Weather Roundup
Issued by NWS Little Rock, AR

Home | Current Version | Previous Version | Graphics & Text | Print | Product List | Glossary On
Versions: 1 2 3 4 5 6 7 8 9 10 11 12 13 14 15 16 17 18 19 20 21 22 23 24 25 26 27 28 29 30 31 32 33 34 35 36 37 38 39 40 41 42 43 44 45 46 47 48 49 50
000
ASUS44 KLZK 282305
RWRLZK

WEATHER ROUNDUP FOR ARKANSAS
NATIONAL WEATHER SERVICE LITTLE ROCK AR
500 PM CST WED JAN 28 2015

NOTE: "FAIR" INDICATES FEW OR NO CLOUDS BELOW 12,000 FEET WITH NO
SIGNIFICANT WEATHER AND/OR OBSTRUCTIONS TO VISIBILITY.

ARZ001-003-010-029-290000-
NORTHWEST ARKANSAS

CITY           SKY/WX    TMP DP  RH WIND       PRES   REMARKS
FAYETTEVILLE   MOCLDY    63  41  44 S15       29.93F
FORT SMITH     MOCLDY    73  40  30 SW12G18   29.95F
HARRISON       PTCLDY    62  40  44 S14       29.96R
BENTONVILLE    MOCLDY    64  39  39 S14G21    29.92S
ROGERS         MOCLDY    66  41  40 S16G29    29.91F
SILOAM SPGS    MOCLDY    66  39  37 S16G25    29.92S
HIGHFILL       MOCLDY    66  41  40 S17G26    29.91S
SPRINGDALE     MOCLDY    64  41  42 S14G25    29.95S
$$

ARZ004-005-016-290000-
NORTH CENTRAL ARKANSAS

CITY           SKY/WX    TMP DP  RH WIND       PRES   REMARKS
BATESVILLE     CLEAR     57  36  44 SE7       30.05F
FLIPPIN        PTCLDY    61  37  41 S8G18     29.97S
MTN HOME       PTCLDY    59  36  42 S12       29.97F
$$

ARZ040-041-290000-
WEST CENTRAL ARKANSAS

CITY           SKY/WX    TMP DP  RH WIND       PRES   REMARKS
MENA           MOCLDY    70  46  43 CALM      30.01S
MOUNT IDA      MOCLDY    71  44  37 CALM      30.00S
$$

ARZ009-017-025-026-028-290000-
NORTHEAST ARKANSAS

CITY           SKY/WX    TMP DP  RH WIND       PRES   REMARKS
CORNING        FAIR      50  39  66 SE9       30.09F
JONESBORO      CLEAR     53  37  54 S10       30.09F
NEWPORT        CLEAR     54  40  59 S17       30.08F
WALNUT RIDGE   CLEAR     52  37  58 S12       30.06F
BLYTHEVILLE    PTCLDY    54  34  46 S10       30.12F
$$

ARZ022-023-033-042-044-290000-
CENTRAL ARKANSAS

CITY           SKY/WX    TMP DP  RH WIND       PRES   REMARKS
LITTLE ROCK    MOCLDY    61  39  44 SE12      30.06F
N LITTLE ROCK  MOCLDY    59  44  55 SE13G18   30.06F
JACKSONVILLE   CLEAR     60  40  47 SE5       30.05F
SEARCY         CLEAR     58  39  49 S9        30.08F
HOT SPRINGS    MOCLDY    67  44  43 SE6       30.03F
RUSSELLVILLE   PTCLDY    66  42  41 SE3       30.00S
CLINTON        FAIR      59  39  47 SE7       30.04F
$$

ARZ036-290000-
EAST ARKANSAS

CITY           SKY/WX    TMP DP  RH WIND       PRES   REMARKS
WEST MEMPHIS   PTCLDY    56  35  45 S12       30.12F
$$

ARZ050-053-066-070-073-290000-
SOUTHWEST ARKANSAS

CITY           SKY/WX    TMP DP  RH WIND       PRES   REMARKS
ARKADELPHIA    FAIR      68  49  50 S6        30.03F
CAMDEN         PTCLDY    72  39  30 MISG      30.05F
TEXARKANA      PTCLDY    73  45  36 S12       30.03S
EL DORADO      PTCLDY    71  42  35 S8        30.07F
DE QUEEN       MOCLDY    74  45  35 S7        29.99R
$$

ARZ056-057-069-290000-
SOUTHEAST ARKANSAS

CITY           SKY/WX    TMP DP  RH WIND       PRES   REMARKS
PINE BLUFF     CLEAR     59  43  55 SE15      30.08F
STUTTGART      PTCLDY    59  39  47 SE13      30.09F
MONTICELLO     CLEAR     64  40  41 S7        30.10F

$$




USA.gov is the U.S. government's official web portal to all federal, state and local government web resources and services.